Roswell, NM

10:09 AM MST on February 09, 2016 (GMT -0700)
Roswell Industrial

Weather History for KROW - September, 2013

Change the Weather History Date:

Friday, September 27, 2013

  Actual Average Record
Temperature  
Mean Temperature 76 °F 68 °F  
Max Temperature 87 °F 82 °F 99 °F (1953)
Min Temperature 65 °F 54 °F 30 °F (1901)
Degree Days  
Heating Degree Days 0 1  
Month to date heating degree days 0 10  
Since 1 July heating degree days 0 10  
Cooling Degree Days 11 4  
Month to date cooling degree days 272 216  
Year to date cooling degree days 2136 1740  
Growing Degree Days 26 (Base 50)    
Moisture  
Dew Point 56 °F    
Average Humidity 60    
Maximum Humidity 87    
Minimum Humidity 32    
Precipitation  
Precipitation T in 0.05 in 2.21 in (1958)
Month to date precipitation 3.74 1.40  
Year to date precipitation 8.34 10.33  
Sea Level Pressure  
Sea Level Pressure 29.65 in    
Wind  
Wind Speed 12 mph (South)    
Max Wind Speed 24 mph    
Max Gust Speed 35 mph    
Visibility 10 miles    
Events      
T = Trace of Precipitation, MM = Missing Value Source: NWS Daily Summary

Daily Weather History Graph

Daily Weather History Graph

Search for Another Location

Airport or City:

Trip Planner

Search our weather history database for the weather conditions in past years. The results will help you decide how hot, cold, wet, or windy it might be!

Date:

Astronomy

Sep. 27, 2013 Rise Set
Actual Time 6:49 AM MDT 6:47 PM MDT
Civil Twilight 6:25 AM MDT 7:12 PM MDT
Nautical Twilight 5:56 AM MDT 7:41 PM MDT
Astronomical Twilight 5:27 AM MDT 8:09 PM MDT
Moon 12:04 AM MDT (9/27) 2:11 PM MDT (9/27)
Length of Visible Light 12h 47m
Length of Day
11h 57m
Last Quarter, 44% of the Moon is Illuminated
Sep 27
Last Quarter
Oct 4
New
Oct 11
First Quarter
Oct 18
Full
Oct 26
Last Quarter

Hourly Weather History & Observations

Time (MDT) Temp. Heat Index Dew Point Humidity Pressure Visibility Wind Dir Wind Speed Gust Speed Precip Events Conditions
12:51 AM 75.0 °F - 54.0 °F 48% 29.64 in 10.0 mi SSE 10.4 mph - N/A   Overcast
1:51 AM 73.0 °F - 57.0 °F 57% 29.64 in 10.0 mi SSE 6.9 mph - N/A   Overcast
2:51 AM 71.1 °F - 57.9 °F 63% 29.63 in 10.0 mi South 3.5 mph - N/A   Overcast
3:51 AM 70.0 °F - 59.0 °F 68% 29.62 in 10.0 mi ESE 4.6 mph - N/A   Partly Cloudy
4:51 AM 69.1 °F - 59.0 °F 70% 29.64 in 10.0 mi Calm Calm - N/A   Overcast
5:51 AM 68.0 °F - 61.0 °F 78% 29.66 in 10.0 mi South 3.5 mph - 0.00 in   Overcast
6:51 AM 66.9 °F - 62.1 °F 84% 29.68 in 10.0 mi SSE 8.1 mph - 0.00 in   Overcast
7:51 AM 66.0 °F - 63.0 °F 90% 29.70 in 10.0 mi SSE 12.7 mph - 0.00 in   Overcast
8:51 AM 68.0 °F - 62.1 °F 81% 29.71 in 10.0 mi SSE 11.5 mph - N/A   Overcast
9:51 AM 73.0 °F - 62.1 °F 68% 29.70 in 10.0 mi SSE 11.5 mph - N/A   Mostly Cloudy
10:51 AM 75.9 °F - 61.0 °F 60% 29.67 in 10.0 mi South 9.2 mph - N/A   Overcast
11:51 AM 79.0 °F - 60.1 °F 52% 29.65 in 10.0 mi South 15.0 mph - N/A   Overcast
12:51 PM 82.0 °F 83.0 °F 62.1 °F 51% 29.62 in 10.0 mi SE 19.6 mph - N/A   Scattered Clouds
1:51 PM 86.0 °F 85.7 °F 60.1 °F 41% 29.59 in 10.0 mi SSE 20.7 mph 31.1 mph N/A   Clear
2:51 PM 84.9 °F 83.7 °F 55.9 °F 37% 29.58 in 10.0 mi South 20.7 mph 26.5 mph N/A   Mostly Cloudy
3:51 PM 86.0 °F 84.9 °F 57.0 °F 37% 29.58 in 10.0 mi South 21.9 mph 27.6 mph N/A   Partly Cloudy
4:51 PM 84.9 °F 83.3 °F 54.0 °F 34% 29.57 in 10.0 mi South 17.3 mph 24.2 mph N/A   Mostly Cloudy
5:51 PM 84.9 °F - 52.0 °F 32% 29.57 in 10.0 mi SW 16.1 mph - N/A   Mostly Cloudy
6:51 PM 80.1 °F 80.0 °F 54.0 °F 40% 29.60 in 10.0 mi SSW 9.2 mph - N/A   Scattered Clouds
7:51 PM 75.9 °F - 53.1 °F 45% 29.63 in 10.0 mi SW 9.2 mph - N/A   Clear
8:51 PM 75.0 °F - 53.1 °F 46% 29.67 in 10.0 mi WNW 8.1 mph - N/A   Scattered Clouds
9:51 PM 70.0 °F - 43.0 °F 38% 29.71 in 10.0 mi North 13.8 mph - N/A   Clear
10:51 PM 69.1 °F - 42.1 °F 38% 29.75 in 10.0 mi North 11.5 mph - N/A   Scattered Clouds
11:51 PM 66.0 °F - 43.0 °F 43% 29.80 in 10.0 mi North 10.4 mph - N/A   Mostly Cloudy